Sheringham Point, British Columbia

6:40 AM PDT on April 23, 2017 (GMT -0700)
Sheringham Point

Weather History for CWSP - November, 2012

Change the Weather History Date:

Friday, November 23, 2012

  Actual Average Record
Temperature  
Mean Temperature 48 °F -  
Max Temperature 52 °F - - ()
Min Temperature 45 °F - - ()
Degree Days  
Heating Degree Days 16    
Moisture  
Dew Point 46 °F    
Average Humidity 87    
Maximum Humidity 98    
Minimum Humidity 70    
Precipitation  
Precipitation 0.28 in - - ()
Sea Level Pressure  
Sea Level Pressure 30.02 in    
Wind  
Wind Speed 6 mph ()    
Max Wind Speed 20 mph    
Max Gust Speed 21 mph    
T = Trace of Precipitation, MM = Missing Value Source: Averaged Metar Reports

Daily Weather History Graph

Daily Weather History Graph

Search for Another Location

Airport or City:

Trip Planner

Search our weather history database for the weather conditions in past years. The results will help you decide how hot, cold, wet, or windy it might be!

Date:

Astronomy

Nov. 23, 2012 Rise Set
Actual Time 7:35 AM PST 4:28 PM PST
Civil Twilight 7:00 AM PST 5:03 PM PST
Nautical Twilight 6:22 AM PST 5:42 PM PST
Astronomical Twilight 5:44 AM PST 6:19 PM PST
Moon 2:02 PM PST 2:41 AM PST
Length of Visible Light 10h 02m
Length of Day
8h 52m
Waxing Gibbous, 80% of the Moon is Illuminated
Nov 23
Waxing Gibbous
Nov 28
Full
Dec 6
Last Quarter
Dec 13
New
Dec 19
First Quarter

Hourly Weather History & Observations

Time (PST) Temp. Dew Point Humidity Pressure Visibility Wind Dir Wind Speed Gust Speed Precip Events Conditions
12:00 AM 48.6 °F 39.0 °F 70% 30.05 in - West 2.3 mph - N/A   Unknown
1:00 AM 49.5 °F 40.3 °F 71% 30.01 in - NW 1.2 mph - N/A   Unknown
2:00 AM 46.8 °F 44.4 °F 92% 29.99 in - Calm Calm - 0.05 in   Unknown
3:00 AM 48.0 °F 46.4 °F 94% 29.99 in - Calm Calm - 0.06 in   Unknown
4:00 AM 47 °F 47 °F 98% 29.99 in - Calm Calm - -  
4:00 AM 47.3 °F 46.6 °F 97% 29.99 in - Calm Calm - 0.16 in   Unknown
5:00 AM 49.1 °F 48.6 °F 98% 29.99 in - NW 2.3 mph - 0.09 in   Unknown
6:00 AM 51.4 °F 48.6 °F 90% 29.99 in - NW 10.4 mph 20.7 mph 0.02 in   Unknown
7:00 AM 50.9 °F 48.6 °F 92% 29.99 in - WNW 15.0 mph - N/A   Unknown
8:00 AM 51.8 °F 48.4 °F 88% 30.00 in - WNW 12.7 mph 19.6 mph N/A   Unknown
9:00 AM 52.9 °F 47.7 °F 82% 30.01 in - West 19.6 mph - 0.02 in   Unknown
10:00 AM 51 °F 48 °F 86% 30.01 in - WNW 13.8 mph - -  
10:00 AM 50.5 °F 48.0 °F 91% 30.01 in - WNW 13.8 mph 19.6 mph N/A   Unknown
11:00 AM 50.2 °F 46.8 °F 88% 30.03 in - WNW 10.4 mph - N/A   Unknown
12:00 PM 51.1 °F 47.3 °F 87% 30.02 in - WNW 12.7 mph - N/A   Unknown
1:00 PM 51.1 °F 47.3 °F 87% 30.01 in - WNW 12.7 mph - N/A   Unknown
2:00 PM 51.1 °F 47.5 °F 87% 30.00 in - WNW 12.7 mph - N/A   Unknown
3:00 PM 51.3 °F 46.9 °F 85% 30.01 in - WNW 9.2 mph - N/A   Unknown
4:00 PM 51 °F 47 °F 80% 30.01 in - WNW 10.4 mph - -  
4:00 PM 50.9 °F 46.6 °F 85% 30.01 in - WNW 10.4 mph - N/A   Unknown
5:00 PM 50.7 °F 47.1 °F 87% 30.01 in - WNW 12.7 mph - N/A   Unknown
6:00 PM 49.3 °F 47.1 °F 92% 30.02 in - West 10.4 mph - N/A   Unknown
7:00 PM 48.4 °F 45.3 °F 89% 30.04 in - WNW 6.9 mph - N/A   Unknown
8:00 PM 48.9 °F 45.1 °F 87% 30.05 in - WNW 12.7 mph - N/A   Unknown
9:00 PM 49.6 °F 45.7 °F 86% 30.06 in - West 18.4 mph - N/A   Unknown
10:00 PM 48 °F 44 °F 79% 30.09 in - WNW 8.1 mph - -  
10:00 PM 47.7 °F 43.5 °F 86% 30.09 in - WNW 8.1 mph - N/A   Unknown
11:00 PM 47.7 °F 44.1 °F 87% 30.11 in - WNW 6.9 mph - N/A   Unknown